STARLINK-32278, 60356

Orbit data source: Space-Track

STARLINK-32278, 60356 is a payload satellite owned by SpaceX/Seattle (US) in LEO that was launched on Sun, 04 Aug 2024 UTC via an FALCON 9 launch vehicle from the Air Force Western Test Range (AFWTR). Payload-class satellites include a variety of spacecraft equipped with specific instruments for various scientific and technological missions. These include communications satellites like Starlink; space stations such as the ISS; scientific satellites like the Hubble; Earth observation satellites from companies like Planet Labs, Umbra, and HawkEye 360; GPS; miniature CubeSats for education and research; and military/defense satellites.

Loading next visibility...
Identifier
60356, 2024-138B
Orbit
LEO
Country
Flag of USUS
Related business
Manufacturer
SpaceX/Seattle
Mission
Operational Commercial Communications
Bus & Motor
STARLINK V2M, Unknown motor
Mass
730 kg wet, ~700 kg dry
Launch date (UTC)
2024-08-04 (1 year ago)
Launch vehicle
FALCON 9
Launch site
Air Force Western Test Range (AFWTR)
Object type
Payload
Rocket body
Debris
Shape & HBR
Box + 2 Pan, 17.7 m
Radar Cross Section
33.884 m², Large (>1 m²)

Expand to show TLE details & history
Last TLE update: 9 hours ago

TLE from 9 hours ago
0 STARLINK-32278
1 60356U 24138B   25353.94586161  .00001312  00000-0  56418-4 0  9991
2 60356  53.1589 320.3390 0001441  94.8728 265.2437 15.30192805 78414
Epoch: 2025-12-19T22:42Z
TLE epoch observation values (Epoch: 2025-12-19T22:42:02.443Z)
Latitude
-0.00003°
Longitude
-108.95093°
Altitude
476.218 km
Speed
7.629 km/s
True Right ascension
21h 21m 21s
True Declination
0° 00' 00"
Sunlit
Object was in daylight at epoch
Visualization orbit readout
Latitude
Unknown
Longitude
Unknown
Altitude
Unknown
Speed
Unknown
Apparent Right ascension
Unknown
Apparent Declination
Unknown
Sunlit
N/A
Visualization observer readout
Local Sidereal Time
06:18:10
Azimuth
Unknown
Elevation
Unknown
Doppler factor
Unknown
Orbital elements
Apogee altitude
476.481 km
Perigee altitude
474.506 km
Semi-major axis
6,853.63 km
Eccentricity
0.00014
Inclination
53.1589°
RAAN
320.339°
Arg. of periapsis
94.8728°
True anomaly
265.22724°
Mean anomaly
265.2437°
Eccentric anomaly
265.23547°
Mean motion
3.82527 °/min
Orbital period
94.11 mins
BSTAR
0.000056418
Loading maneuver chart data...
Computing Atmospheric mass density...
Loading historical data...
Loading historical data...
Loading historical data...
Loading historical data...
Loading historical data...
Loading historical data...
Loading historical data...

Documentation

Showing up to 5 results
|